Location: *
(49.9853°N, 3.5569°E)
Time: 00:05:26
(UTC+00:00)

SL-08 RB Rocket - Pass Details

Date: 22 September 2019
Orbit: 646 x 685 km, 97.9° (Epoch: 15 October)

Event Time Altitude Azimuth Distance (km) Brightness Sun altitude
Exits shadow 19:26:58 29° 132° (SE) 1,262 4.6 -16.9°
Maximum altitude 19:29:07 52° 70° (ENE) 853 3.9 -17.2°
Drops below altitude 10° 19:33:39 10° 355° (N) 2,139 6.7 -17.9°
Sets 19:35:56 0° 351° (N) 3,056 7.6 -18.2°
